Location: La Brionne
(46.1728°N, 1.7849°E)
Time: 07:49:03
(UTC+00:00)

Cosmos 2322 Rocket - Pass Details

Date: 03 November 2021
Orbit: 832 x 851 km, 71.0° (Epoch: 01 December)

Event Time Altitude Azimuth Distance (km) Brightness Sun altitude
Rises 17:16:33 0° 231° (SW) 3,368 6.7 -7.6°
Reaches altitude 10° 17:19:10 10° 240° (WSW) 2,439 6.1 -8.0°
Maximum altitude 17:24:18 36° 306° (NW) 1,293 3.6 -8.9°
Drops below altitude 10° 17:29:30 10° 13° (NNE) 2,461 4.4 -9.8°
Sets 17:32:09 0° 22° (NNE) 3,402 5.0 -10.2°
